"startDT [UTC]","vpos","CH4 [ppm]","stdev(CH4) [ppm]","CO2 [ppm]","stdev(CO2) [ppm]","H2O_reported [%]","stdev(H2O_reported)","CavityPressure [torr]","CavityTemp [C]","OutletValve","CH4_dry [ppm]","CO2_dry [ppm]","DasTemp [C]","EtalonTemp [C]","WarmBoxTemp [C]","MPVPosition","T_ECpre [C]","T_EC1 [C]","T_EC2 [C]","p_inlet [hPa]","p_in [hPa]","p_out [hPa]","T_inlet [C]","RH_inlet [%]","dwpt_inlet [C]","T_vent [C]","RH_vent [%]","dwpt_vent [C]","flow_vent [l min-1]","flow_inlet [l min-1]","dwpt_sample [C]","T_room [C]"
2015-12-10 00:00:00,3.0,1.88440,0.02641,399.306,3.426,0.0076,0.0083,140.005,45.000,31289.14011,1.88743,399.531,27.001,45.072,45.000,0.00,0.09,-272.71,-272.78,-7,522,-934,13.5,1.4,-38.3,13.7,1.5,-37.7,5.73,2.35,-23.2,20.4
2015-12-10 00:01:00,3.0,1.87656,0.00046,397.021,0.041,0.0022,0.0018,139.997,45.000,31290.63242,1.87655,397.034,27.001,45.072,45.000,0.00,0.09,-272.73,-272.79,-8,522,-934,13.5,1.4,-38.3,13.7,1.5,-37.5,5.73,2.47,-23.2,20.4
2015-12-10 00:02:00,3.0,1.87641,0.00032,397.301,0.138,0.0022,0.0022,140.000,45.000,31292.72501,1.87649,397.303,26.999,45.072,45.000,0.00,0.09,-272.72,-272.78,-8,522,-934,13.5,1.4,-38.4,13.7,1.5,-37.5,5.73,2.49,-23.3,20.4
2015-12-10 00:03:00,3.0,1.87657,0.00032,397.580,0.049,0.0027,0.0016,139.998,45.000,31293.38841,1.87660,397.593,26.991,45.072,45.000,0.00,0.09,-272.72,-272.78,-9,522,-934,13.5,1.4,-38.5,13.7,1.5,-37.6,5.73,2.49,-23.3,20.4
2015-12-10 00:04:00,3.0,1.87654,0.00026,397.587,0.038,0.0028,0.0011,140.001,45.000,31297.76224,1.87660,397.600,26.974,45.072,45.000,0.00,0.09,-272.73,-272.79,-9,522,-934,13.5,1.4,-38.5,13.7,1.5,-37.6,5.73,2.49,-23.3,20.4
2015-12-10 00:05:00,3.0,1.87648,0.00031,397.576,0.035,0.0020,0.0016,139.997,45.000,31299.57121,1.87651,397.586,26.947,45.072,45.000,0.00,0.09,-272.73,-272.78,-10,522,-934,13.5,1.4,-38.7,13.7,1.5,-37.8,5.73,2.46,-23.3,20.4
2015-12-10 00:06:00,3.0,1.87638,0.00040,397.573,0.026,0.0014,0.0019,139.998,45.000,31301.15103,1.87643,397.579,26.939,45.073,45.000,0.00,0.09,-272.72,-272.77,-10,523,-934,13.5,1.4,-38.6,13.7,1.5,-37.8,5.73,2.47,-23.3,20.4
2015-12-10 00:07:00,3.0,1.87632,0.00033,397.552,0.025,0.0009,0.0018,139.998,45.000,31304.82500,1.87633,397.558,26.938,45.072,45.000,0.00,0.09,-272.73,-272.78,-10,523,-934,13.6,1.4,-38.6,13.7,1.5,-37.7,5.73,2.45,-23.3,20.4
2015-12-10 00:08:00,3.0,1.87612,0.00027,397.570,0.032,0.0012,0.0017,139.999,45.000,31307.09957,1.87615,397.576,26.929,45.073,45.001,0.00,0.09,-272.73,-272.78,-10,523,-934,13.6,1.4,-38.4,13.8,1.5,-37.6,5.73,2.45,-23.3,20.4
2015-12-10 00:09:00,3.0,1.87637,0.00039,397.561,0.037,0.0008,0.0015,139.999,45.001,31308.52693,1.87638,397.565,26.912,45.072,45.000,0.00,0.09,-272.73,-272.77,-10,523,-934,13.7,1.4,-38.2,13.8,1.5,-37.4,5.73,2.46,-23.3,20.5
2015-12-10 00:10:00,3.0,1.87652,0.00049,397.565,0.035,0.0003,0.0021,139.999,45.000,31309.08230,1.87652,397.565,26.910,45.073,45.001,0.00,0.09,-272.72,-272.77,-11,523,-934,13.7,1.4,-38.2,13.8,1.5,-37.4,5.73,2.45,-23.3,20.5
2015-12-10 00:11:00,3.0,1.87639,0.00033,397.570,0.039,0.0006,0.0025,139.999,44.999,31309.20981,1.87641,397.574,26.899,45.073,45.000,0.00,0.09,-272.73,-272.78,-11,523,-934,13.7,1.4,-38.3,13.9,1.5,-37.4,5.73,2.47,-23.4,20.5
2015-12-10 00:12:00,3.0,1.87648,0.00041,397.573,0.032,-0.0001,0.0013,140.000,44.999,31307.32406,1.87647,397.574,26.915,45.073,45.001,0.00,0.09,-272.72,-272.77,-11,523,-934,13.8,1.4,-38.4,13.9,1.5,-37.5,5.73,2.47,-23.4,20.5
2015-12-10 00:13:00,3.0,1.87625,0.00030,397.588,0.020,0.0002,0.0017,140.000,44.999,31309.99085,1.87628,397.589,26.905,45.072,45.000,0.00,0.09,-272.72,-272.77,-11,523,-934,13.8,1.4,-38.5,13.9,1.5,-37.6,5.73,2.46,-23.4,20.5
2015-12-10 00:14:00,3.0,1.87622,0.00033,397.574,0.043,0.0002,0.0019,139.999,45.000,31312.06933,1.87621,397.577,26.933,45.072,45.000,0.00,0.09,-272.73,-272.78,-12,523,-934,13.9,1.4,-38.6,13.9,1.5,-37.7,5.73,2.48,-23.4,20.5
2015-12-10 00:15:00,3.0,1.87629,0.00031,397.563,0.027,0.0006,0.0020,139.999,45.000,31312.13999,1.87630,397.564,26.938,45.072,45.000,0.00,0.09,-272.73,-272.77,-11,524,-934,13.9,1.3,-38.9,14.0,1.4,-37.9,5.73,2.48,-23.4,20.5
2015-12-10 00:16:00,3.0,1.87631,0.00043,397.592,0.043,-0.0003,0.0015,139.995,45.001,31312.69951,1.87634,397.593,26.938,45.072,45.000,0.00,0.09,-272.72,-272.78,-11,524,-934,13.9,1.3,-39.2,14.0,1.4,-38.2,5.73,2.48,-23.4,20.6
2015-12-10 00:17:00,3.0,1.87634,0.00035,397.572,0.037,0.0003,0.0020,140.000,45.000,31318.17304,1.87631,397.572,26.938,45.072,45.000,0.00,0.09,-272.72,-272.79,-12,524,-934,14.0,1.2,-39.5,14.0,1.4,-38.5,5.73,2.50,-23.4,20.6
2015-12-10 00:18:00,3.0,1.87636,0.00031,397.577,0.035,0.0002,0.0019,140.000,45.000,31318.90767,1.87638,397.577,26.938,45.072,45.000,0.00,0.09,-272.73,-272.79,-12,524,-934,14.0,1.2,-39.7,14.1,1.3,-38.7,5.73,2.49,-23.4,20.6
2015-12-10 00:19:00,3.0,1.87623,0.00044,397.557,0.023,-0.0010,0.0026,139.998,45.000,31319.00681,1.87621,397.552,26.940,45.072,45.000,0.00,0.09,-272.72,-272.78,-12,524,-934,14.1,1.2,-40.0,14.1,1.3,-39.1,5.73,2.49,-23.4,20.6
2015-12-10 00:20:00,0.0,1.95270,0.02981,406.668,3.654,0.0163,0.0084,140.004,45.000,31370.70604,1.94993,406.566,26.939,45.072,45.000,0.00,0.09,-272.73,-272.77,-12,532,-934,14.1,1.1,-40.2,14.1,1.3,-39.1,5.73,2.60,-23.4,20.6
2015-12-10 00:21:00,0.0,1.96785,0.00254,408.318,0.054,0.0219,0.0015,139.999,45.000,31383.27565,1.96833,408.426,26.939,45.072,45.000,0.00,0.09,-272.73,-272.78,-12,533,-934,14.1,1.1,-40.3,14.2,1.2,-39.3,5.73,2.51,-23.4,20.6
2015-12-10 00:22:00,0.0,1.96651,0.00055,408.289,0.041,0.0229,0.0016,139.998,45.000,31387.42020,1.96696,408.401,26.964,45.072,45.000,0.00,0.09,-272.73,-272.78,-12,534,-934,14.2,1.1,-40.4,14.2,1.2,-39.4,5.73,2.49,-23.4,20.7
2015-12-10 00:23:00,0.0,1.96692,0.00086,408.271,0.033,0.0228,0.0015,139.999,45.000,31392.90249,1.96725,408.382,26.983,45.072,45.000,0.00,0.09,-272.73,-272.78,-12,534,-934,14.2,1.1,-40.4,14.2,1.2,-39.4,5.73,2.48,-23.4,20.7
2015-12-10 00:24:00,0.0,1.96766,0.00127,408.263,0.025,0.0222,0.0017,139.999,45.000,31394.29667,1.96820,408.373,26.984,45.072,45.000,0.00,0.09,-272.73,-272.79,-12,535,-934,14.2,1.1,-40.4,14.3,1.2,-39.4,5.73,2.47,-23.4,20.7
2015-12-10 00:25:00,0.0,1.96496,0.00053,408.255,0.034,0.0227,0.0012,139.994,45.000,31396.54667,1.96547,408.367,26.997,45.072,45.000,0.00,0.09,-272.72,-272.79,-12,535,-934,14.2,1.1,-40.6,14.3,1.2,-39.5,5.73,2.49,-23.4,20.7
2015-12-10 00:26:00,0.0,1.96401,0.00041,408.247,0.033,0.0223,0.0018,140.001,45.000,31400.79182,1.96446,408.355,26.991,45.072,45.000,0.00,0.09,-272.72,-272.77,-12,535,-934,14.3,1.1,-40.6,14.3,1.2,-39.6,5.73,2.50,-23.4,20.7
2015-12-10 00:27:00,0.0,1.96328,0.00055,408.228,0.022,0.0225,0.0014,139.998,45.000,31402.50899,1.96372,408.339,26.997,45.072,45.000,0.00,0.09,-272.73,-272.78,-12,535,-934,14.3,1.1,-40.6,14.3,1.2,-39.7,5.73,2.52,-23.4,20.7
2015-12-10 00:28:00,0.0,1.96256,0.00086,408.200,0.040,0.0221,0.0014,139.999,45.000,31403.78206,1.96304,408.308,26.984,45.072,45.000,0.00,0.09,-272.73,-272.78,-13,535,-934,14.3,1.1,-40.6,14.3,1.2,-39.6,5.73,2.53,-23.4,20.7
2015-12-10 00:29:00,0.0,1.96183,0.00045,408.193,0.026,0.0234,0.0017,139.997,45.000,31403.45728,1.96229,408.307,26.949,45.072,45.000,0.00,0.09,-272.73,-272.78,-13,535,-934,14.3,1.1,-40.4,14.3,1.2,-39.4,5.73,2.52,-23.4,20.7
2015-12-10 00:30:00,0.0,1.96388,0.00167,408.204,0.037,0.0230,0.0014,139.998,45.000,31403.85903,1.96412,408.316,26.939,45.072,45.000,0.00,0.09,-272.72,-272.78,-12,536,-934,14.3,1.1,-40.2,14.3,1.2,-39.2,5.73,2.51,-23.4,20.7
2015-12-10 00:31:00,0.0,1.96687,0.00191,408.262,0.043,0.0238,0.0019,140.000,44.999,31406.53747,1.96730,408.379,26.938,45.072,45.000,0.00,0.09,-272.73,-272.79,-12,536,-934,14.3,1.1,-40.2,14.3,1.2,-39.2,5.73,2.50,-23.4,20.7
2015-12-10 00:32:00,0.0,1.96289,0.00202,408.233,0.042,0.0233,0.0016,139.997,45.000,31405.89447,1.96357,408.349,26.908,45.072,45.000,0.00,0.09,-272.73,-272.78,-12,536,-934,14.3,1.1,-40.4,14.3,1.2,-39.2,5.73,2.49,-23.4,20.7
2015-12-10 00:33:00,0.0,1.96412,0.00141,408.232,0.024,0.0231,0.0014,140.000,45.000,31408.48435,1.96449,408.346,26.921,45.073,45.000,0.00,0.09,-272.73,-272.78,-13,536,-934,14.2,1.1,-40.3,14.3,1.2,-39.3,5.73,2.48,-23.4,20.7
2015-12-10 00:34:00,0.0,1.96613,0.00054,408.222,0.033,0.0229,0.0017,139.997,45.001,31409.73293,1.96648,408.334,26.924,45.073,45.000,0.00,0.09,-272.73,-272.78,-13,536,-933,14.2,1.1,-40.4,14.3,1.2,-39.2,5.73,2.48,-23.4,20.7
2015-12-10 00:35:00,0.0,1.96700,0.00052,408.225,0.032,0.0232,0.0017,139.998,45.000,31410.20535,1.96741,408.339,26.923,45.072,45.000,0.00,0.09,-272.73,-272.78,-13,536,-934,14.2,1.1,-40.4,14.3,1.2,-39.2,5.73,2.48,-23.4,20.7
2015-12-10 00:36:00,0.0,1.96811,0.00162,408.252,0.040,0.0226,0.0018,140.000,45.000,31409.86979,1.96864,408.362,26.938,45.072,45.000,0.00,0.09,-272.72,-272.77,-13,537,-934,14.2,1.1,-40.4,14.3,1.2,-39.4,5.73,2.49,-23.4,20.7
2015-12-10 00:37:00,0.0,1.96607,0.00132,408.221,0.036,0.0233,0.0022,140.000,45.000,31412.20016,1.96654,408.335,26.938,45.072,45.000,0.00,0.09,-272.73,-272.78,-13,536,-934,14.2,1.1,-40.6,14.3,1.2,-39.4,5.73,2.51,-23.4,20.7
2015-12-10 00:38:00,0.0,1.96488,0.00064,408.213,0.041,0.0215,0.0018,139.999,45.000,31412.50152,1.96523,408.319,26.941,45.072,45.000,0.00,0.09,-272.73,-272.79,-13,536,-934,14.2,1.1,-40.6,14.3,1.2,-39.5,5.73,2.52,-23.4,20.7
2015-12-10 00:39:00,0.0,1.96452,0.00078,408.200,0.027,0.0224,0.0015,140.000,45.000,31413.48652,1.96500,408.309,26.939,45.072,45.000,0.00,0.09,-272.72,-272.78,-13,537,-934,14.2,1.1,-40.6,14.3,1.2,-39.5,5.73,2.53,-23.4,20.7
2015-12-10 00:40:00,0.0,1.96594,0.00078,408.205,0.049,0.0223,0.0018,139.999,45.000,31413.11587,1.96634,408.314,26.940,45.072,45.000,0.00,0.09,-272.72,-272.78,-13,536,-934,14.1,1.1,-40.7,14.3,1.2,-39.4,5.73,2.53,-23.5,20.7
2015-12-10 00:41:00,0.0,1.97025,0.00233,408.261,0.052,0.0227,0.0017,140.000,45.001,31415.46351,1.97039,408.369,26.928,45.072,45.000,0.00,0.09,-272.73,-272.78,-13,536,-934,14.1,1.1,-40.6,14.3,1.2,-39.4,5.73,2.52,-23.5,20.7
2015-12-10 00:42:00,0.0,1.96856,0.00374,408.243,0.077,0.0220,0.0024,140.002,45.000,31417.73945,1.96929,408.354,26.898,45.072,45.000,0.00,0.09,-272.73,-272.78,-13,537,-934,14.1,1.1,-40.7,14.3,1.2,-39.7,5.73,2.50,-23.5,20.7
2015-12-10 00:43:00,0.0,1.96458,0.00078,408.205,0.027,0.0228,0.0017,139.996,45.000,31416.54385,1.96505,408.318,26.928,45.072,45.000,0.00,0.09,-272.73,-272.77,-13,537,-934,14.1,1.1,-40.7,14.3,1.2,-39.6,5.73,2.49,-23.4,20.7
2015-12-10 00:44:00,0.0,1.96551,0.00081,408.218,0.027,0.0221,0.0018,139.997,45.000,31419.34718,1.96588,408.327,26.938,45.072,45.000,0.00,0.09,-272.73,-272.78,-13,536,-934,14.1,1.1,-40.7,14.2,1.2,-39.5,5.73,2.49,-23.5,20.7
2015-12-10 00:45:00,0.0,1.96541,0.00050,408.207,0.037,0.0226,0.0017,140.001,45.000,31419.32197,1.96590,408.316,26.938,45.072,45.000,0.00,0.09,-272.73,-272.78,-13,536,-934,14.1,1.1,-40.7,14.2,1.2,-39.5,5.73,2.48,-23.5,20.7
2015-12-10 00:46:00,0.0,1.96661,0.00260,408.245,0.040,0.0218,0.0016,140.003,45.000,31417.59129,1.96681,408.350,26.938,45.072,45.000,0.00,0.09,-272.73,-272.79,-13,537,-934,14.1,1.1,-40.7,14.2,1.2,-39.5,5.73,2.48,-23.4,20.7
2015-12-10 00:47:00,0.0,1.96561,0.00171,408.237,0.045,0.0228,0.0016,139.997,45.000,31418.02184,1.96627,408.350,26.930,45.072,45.000,0.00,0.09,-272.72,-272.78,-13,537,-934,14.1,1.1,-40.6,14.2,1.2,-39.5,5.73,2.50,-23.5,20.7
2015-12-10 00:48:00,0.0,1.96559,0.00079,408.232,0.027,0.0232,0.0018,139.996,45.000,31418.59673,1.96599,408.345,26.916,45.072,45.000,0.00,0.09,-272.73,-272.79,-13,537,-934,14.0,1.1,-40.5,14.2,1.2,-39.5,5.73,2.50,-23.5,20.7
2015-12-10 00:49:00,0.0,1.96496,0.00109,408.204,0.029,0.0223,0.0015,139.999,45.000,31419.09606,1.96548,408.314,26.895,45.072,45.000,0.00,0.09,-272.72,-272.78,-13,537,-934,14.0,1.1,-40.5,14.2,1.2,-39.3,5.73,2.52,-23.5,20.7
2015-12-10 00:50:00,0.0,1.96347,0.00040,408.176,0.036,0.0235,0.0016,139.998,45.000,31418.39421,1.96393,408.292,26.893,45.072,45.000,0.00,0.09,-272.72,-272.77,-13,537,-934,14.0,1.1,-40.4,14.2,1.2,-39.3,5.73,2.53,-23.5,20.7
2015-12-10 00:51:00,0.0,1.96292,0.00050,408.153,0.033,0.0232,0.0016,139.999,45.000,31419.42908,1.96336,408.266,26.926,45.072,45.000,0.00,0.09,-272.73,-272.78,-13,537,-934,14.0,1.1,-40.2,14.2,1.2,-39.3,5.73,2.53,-23.5,20.7
2015-12-10 00:52:00,0.0,1.96366,0.00057,408.176,0.027,0.0235,0.0020,140.001,45.000,31418.87118,1.96411,408.291,26.913,45.072,45.000,0.00,0.09,-272.73,-272.78,-13,537,-934,14.0,1.1,-40.3,14.2,1.2,-39.4,5.73,2.53,-23.5,20.7
2015-12-10 00:53:00,0.0,1.96540,0.00283,408.181,0.051,0.0233,0.0012,139.997,45.000,31418.70356,1.96568,408.294,26.911,45.072,45.000,0.00,0.09,-272.73,-272.77,-13,537,-934,13.9,1.1,-40.3,14.1,1.2,-39.3,5.73,2.52,-23.5,20.7
2015-12-10 00:54:00,0.0,1.96935,0.00402,408.248,0.066,0.0231,0.0021,139.998,45.000,31418.88967,1.97001,408.363,26.928,45.072,45.000,0.00,0.09,-272.73,-272.78,-14,537,-946,13.9,1.1,-40.4,14.1,1.2,-39.4,5.73,2.50,-23.5,20.7
2015-12-10 00:55:00,0.0,1.96218,0.00066,408.111,0.043,0.0241,0.0027,139.997,45.000,31419.13298,1.96264,408.229,26.931,45.072,45.000,0.00,0.09,-272.73,-272.79,-13,537,-934,13.9,1.1,-40.6,14.1,1.2,-39.4,5.73,2.50,-23.5,20.7
2015-12-10 00:56:00,0.0,1.96215,0.00054,408.111,0.043,0.0228,0.0018,139.995,45.000,31417.76510,1.96266,408.222,26.929,45.072,45.000,0.00,0.09,-272.72,-272.78,-14,537,-934,13.9,1.1,-40.5,14.1,1.2,-39.4,5.73,2.48,-23.5,20.7
2015-12-10 00:57:00,0.0,1.96280,0.00059,408.123,0.032,0.0231,0.0018,140.001,45.001,31418.97136,1.96319,408.238,26.931,45.072,45.000,0.00,0.09,-272.72,-272.78,-13,537,-934,13.9,1.1,-40.4,14.1,1.2,-39.3,5.73,2.48,-23.5,20.7
2015-12-10 00:58:00,0.0,1.96293,0.00124,408.117,0.033,0.0227,0.0014,139.997,45.000,31417.36000,1.96328,408.227,26.933,45.072,45.000,0.00,0.09,-272.73,-272.79,-13,536,-934,13.9,1.1,-40.3,14.1,1.2,-39.4,5.73,2.49,-23.5,20.7
2015-12-10 00:59:00,0.0,1.96613,0.00231,408.173,0.052,0.0229,0.0024,139.999,45.000,31418.43923,1.96641,408.284,26.938,45.072,45.000,0.00,0.09,-272.73,-272.78,-13,537,-934,13.9,1.1,-40.4,14.1,1.2,-39.4,5.73,2.50,-23.5,20.7
2015-12-10 01:00:00,0.0,1.96581,0.00271,408.178,0.058,0.0229,0.0020,140.001,45.000,31418.94845,1.96652,408.293,26.937,45.072,45.000,0.00,0.09,-272.73,-272.78,-13,537,-933,13.9,1.1,-40.3,14.1,1.2,-39.3,5.73,2.51,-23.5,20.6
2015-12-10 01:01:00,0.0,1.96371,0.00100,408.133,0.039,0.0227,0.0018,139.999,45.000,31416.28095,1.96406,408.243,26.929,45.072,45.000,0.00,0.09,-272.73,-272.78,-14,536,-933,13.9,1.1,-40.3,14.1,1.2,-39.4,5.73,2.54,-23.5,20.6
2015-12-10 01:02:00,0.0,1.96500,0.00084,408.163,0.032,0.0227,0.0015,139.998,45.000,31415.25282,1.96546,408.274,26.937,45.072,45.000,0.00,0.09,-272.73,-272.79,-14,536,-934,13.8,1.1,-40.4,14.1,1.2,-39.4,5.73,2.53,-23.5,20.6
2015-12-10 01:03:00,0.0,1.96420,0.00084,408.146,0.037,0.0230,0.0022,139.995,45.000,31412.93759,1.96470,408.259,26.934,45.072,45.000,0.00,0.09,-272.73,-272.77,-13,537,-934,13.8,1.1,-40.3,14.0,1.2,-39.4,5.73,2.54,-23.5,20.6
2015-12-10 01:04:00,0.0,1.96295,0.00057,408.131,0.029,0.0231,0.0018,139.996,45.000,31414.94489,1.96340,408.245,26.936,45.072,45.000,0.00,0.09,-272.73,-272.78,-14,537,-933,13.8,1.1,-40.4,14.0,1.3,-39.3,5.73,2.52,-23.5,20.6
2015-12-10 01:05:00,0.0,1.96195,0.00044,408.103,0.035,0.0240,0.0014,139.999,45.000,31414.28355,1.96246,408.221,26.938,45.072,45.000,0.00,0.09,-272.73,-272.78,-13,537,-934,13.8,1.2,-40.2,14.0,1.3,-39.1,5.73,2.51,-23.5,20.6
2015-12-10 01:06:00,0.0,1.96263,0.00058,408.135,0.034,0.0239,0.0012,139.999,45.000,31412.19221,1.96304,408.252,26.931,45.072,45.000,0.00,0.09,-272.73,-272.77,-13,536,-934,13.8,1.2,-39.9,14.0,1.3,-39.0,5.73,2.49,-23.5,20.6
2015-12-10 01:07:00,0.0,1.96276,0.00038,408.133,0.033,0.0253,0.0021,140.000,45.001,31414.54805,1.96325,408.256,26.918,45.072,45.000,0.00,0.09,-272.72,-272.77,-14,537,-933,13.8,1.2,-39.8,14.0,1.3,-38.8,5.73,2.49,-23.5,20.6
2015-12-10 01:08:00,0.0,1.96308,0.00048,408.128,0.031,0.0248,0.0017,140.002,45.002,31418.59528,1.96357,408.250,26.935,45.072,45.000,0.00,0.09,-272.73,-272.79,-14,536,-934,13.8,1.2,-39.7,14.0,1.3,-38.7,5.73,2.49,-23.5,20.6
2015-12-10 01:09:00,0.0,1.96288,0.00044,408.136,0.023,0.0247,0.0014,140.000,45.001,31419.30418,1.96334,408.256,26.938,45.072,45.000,0.00,0.09,-272.73,-272.78,-14,537,-934,13.8,1.2,-39.6,14.0,1.3,-38.6,5.73,2.49,-23.5,20.6
2015-12-10 01:10:00,0.0,1.96218,0.00052,408.135,0.031,0.0256,0.0014,139.999,45.001,31418.04730,1.96274,408.261,26.938,45.072,45.000,0.00,0.09,-272.72,-272.78,-14,537,-934,13.8,1.2,-39.5,14.0,1.4,-38.5,5.73,2.49,-23.5,20.6
2015-12-10 01:11:00,0.0,1.96151,0.00033,408.121,0.031,0.0260,0.0015,139.998,45.000,31417.65794,1.96199,408.248,26.937,45.072,45.000,0.00,0.09,-272.72,-272.79,-14,537,-934,13.8,1.3,-39.3,14.0,1.4,-38.4,5.73,2.51,-23.5,20.6
2015-12-10 01:12:00,0.0,1.96147,0.00032,408.083,0.038,0.0254,0.0023,139.998,45.000,31419.66444,1.96198,408.208,26.927,45.072,45.000,0.00,0.09,-272.73,-272.79,-14,536,-934,13.8,1.3,-39.1,14.0,1.4,-38.2,5.73,2.52,-23.5,20.6
2015-12-10 01:13:00,0.0,1.96135,0.00036,408.106,0.042,0.0251,0.0018,139.999,45.000,31417.97162,1.96183,408.230,26.903,45.072,45.000,0.00,0.09,-272.72,-272.77,-13,537,-934,13.7,1.3,-39.4,14.0,1.4,-38.3,5.73,2.53,-23.5,20.6
2015-12-10 01:14:00,0.0,1.96163,0.00064,408.114,0.031,0.0254,0.0025,139.998,45.000,31415.61224,1.96208,408.238,26.915,45.072,45.000,0.00,0.09,-272.73,-272.78,-14,537,-934,13.7,1.3,-39.4,13.9,1.4,-38.3,5.73,2.53,-23.5,20.6
2015-12-10 01:15:00,0.0,1.96164,0.00035,408.125,0.023,0.0247,0.0014,139.999,44.999,31413.64612,1.96216,408.247,26.937,45.072,45.000,0.00,0.09,-272.73,-272.78,-14,536,-934,13.7,1.2,-39.5,13.9,1.4,-38.6,5.73,2.53,-23.5,20.6
2015-12-10 01:16:00,0.0,1.96169,0.00049,408.111,0.029,0.0238,0.0020,139.999,45.000,31413.02793,1.96213,408.227,26.932,45.072,45.000,0.00,0.09,-272.73,-272.78,-14,536,-934,13.7,1.2,-39.9,13.9,1.3,-38.8,5.73,2.52,-23.5,20.6
2015-12-10 01:17:00,0.0,1.96425,0.00238,408.152,0.049,0.0240,0.0018,139.998,45.000,31412.23408,1.96450,408.268,26.913,45.072,45.000,0.00,0.09,-272.73,-272.78,-14,536,-934,13.7,1.2,-40.0,13.9,1.3,-39.0,5.73,2.51,-23.5,20.6
2015-12-10 01:18:00,0.0,1.96884,0.00158,408.218,0.043,0.0239,0.0018,140.001,45.000,31411.44345,1.96934,408.335,26.904,45.072,45.000,0.00,0.09,-272.73,-272.78,-14,537,-934,13.7,1.2,-39.9,13.9,1.3,-39.0,5.73,2.50,-23.5,20.6
2015-12-10 01:19:00,0.0,1.96694,0.00077,408.199,0.045,0.0246,0.0017,139.999,45.000,31411.93903,1.96746,408.321,26.916,45.072,45.000,0.00,0.09,-272.73,-272.78,-13,536,-934,13.7,1.2,-40.0,13.9,1.3,-38.8,5.73,2.49,-23.5,20.6
2015-12-10 01:20:00,0.0,1.96405,0.00136,408.158,0.042,0.0247,0.0014,139.999,45.000,31412.24071,1.96459,408.279,26.911,45.072,45.000,0.00,0.09,-272.72,-272.77,-14,536,-934,13.7,1.2,-39.8,13.9,1.3,-38.8,5.73,2.49,-23.5,20.6
2015-12-10 01:21:00,0.0,1.96232,0.00100,408.134,0.022,0.0253,0.0016,139.999,45.000,31412.21026,1.96288,408.259,26.920,45.072,45.000,0.00,0.09,-272.72,-272.78,-14,536,-934,13.7,1.2,-39.6,13.9,1.3,-38.7,5.73,2.49,-23.5,20.6
2015-12-10 01:22:00,0.0,1.96219,0.00067,408.113,0.031,0.0255,0.0018,140.001,45.000,31413.90472,1.96265,408.238,26.914,45.072,45.000,0.00,0.09,-272.73,-272.79,-14,537,-934,13.7,1.3,-39.3,13.9,1.4,-38.4,5.73,2.50,-23.6,20.6
2015-12-10 01:23:00,0.0,1.96162,0.00058,408.117,0.026,0.0265,0.0023,139.996,45.000,31412.11637,1.96219,408.247,26.922,45.072,45.000,0.00,0.09,-272.72,-272.78,-14,536,-933,13.7,1.3,-39.1,13.9,1.4,-38.2,5.73,2.51,-23.5,20.5
2015-12-10 01:24:00,0.0,1.96121,0.00031,408.088,0.027,0.0272,0.0015,139.999,45.000,31412.00726,1.96172,408.221,26.912,45.072,45.000,0.00,0.09,-272.72,-272.78,-14,536,-933,13.7,1.4,-38.7,13.9,1.5,-37.8,5.73,2.53,-23.5,20.5
2015-12-10 01:25:00,0.0,1.96117,0.00038,408.121,0.031,0.0286,0.0015,139.999,45.000,31408.74990,1.96173,408.262,26.888,45.072,45.000,0.00,0.09,-272.73,-272.79,-14,536,-933,13.7,1.4,-38.5,13.9,1.5,-37.6,5.73,2.53,-23.6,20.5
2015-12-10 01:26:00,0.0,1.96083,0.00051,408.094,0.033,0.0280,0.0016,139.999,45.000,31410.86642,1.96139,408.231,26.876,45.072,45.000,0.00,0.09,-272.73,-272.78,-14,536,-933,13.6,1.4,-38.3,13.9,1.5,-37.3,5.73,2.53,-23.5,20.5
2015-12-10 01:27:00,0.0,1.96052,0.00035,408.090,0.035,0.0289,0.0018,139.996,45.000,31408.98015,1.96108,408.232,26.875,45.072,45.000,0.00,0.09,-272.72,-272.77,-14,536,-933,13.7,1.5,-38.0,13.9,1.6,-37.1,5.73,2.53,-23.5,20.5
2015-12-10 01:28:00,0.0,1.96085,0.00039,408.119,0.030,0.0302,0.0015,140.000,45.000,31407.88515,1.96143,408.266,26.875,45.072,45.000,0.00,0.09,-272.73,-272.78,-14,537,-933,13.7,1.5,-37.8,13.9,1.6,-36.9,5.73,2.52,-23.6,20.5
2015-12-10 01:29:00,0.0,1.96272,0.00193,417.281,6.565,0.0301,0.0020,139.999,45.000,31408.01565,1.96328,417.377,26.851,45.073,45.000,0.00,0.09,-272.74,-272.78,-14,536,-933,13.6,1.5,-37.6,13.8,1.6,-36.7,5.73,2.50,-23.5,20.5
2015-12-10 01:30:00,0.0,1.96067,0.00048,410.619,1.843,0.0301,0.0015,139.999,45.000,31407.84212,1.96127,410.812,26.829,45.073,45.000,0.00,0.09,-272.72,-272.77,-14,536,-933,13.6,1.6,-37.4,13.9,1.7,-36.6,5.73,2.48,-23.4,20.5
2015-12-10 01:31:00,0.0,1.96065,0.00038,409.422,0.699,0.0309,0.0019,139.997,45.000,31407.24594,1.96125,409.576,26.822,45.072,45.000,0.00,0.09,-272.73,-272.78,-14,536,-933,13.6,1.6,-37.3,13.8,1.7,-36.4,5.73,2.48,-23.3,20.5
2015-12-10 01:32:00,0.0,1.96064,0.00034,408.497,0.269,0.0311,0.0020,139.997,45.000,31406.38376,1.96125,408.641,26.827,45.072,45.000,0.00,0.09,-272.73,-272.79,-14,537,-933,13.6,1.6,-37.3,13.9,1.7,-36.4,5.73,2.48,-23.1,20.5
2015-12-10 01:33:00,0.0,1.96057,0.00035,409.342,0.300,0.0304,0.0019,140.000,45.000,31409.39872,1.96112,409.497,26.824,45.072,45.000,0.00,0.09,-272.72,-272.78,-14,536,-933,13.7,1.5,-37.5,13.8,1.7,-36.5,5.73,2.48,-22.9,20.5
2015-12-10 01:34:00,0.0,1.96056,0.00038,408.693,0.391,0.0281,0.0018,139.998,45.000,31408.72962,1.96112,408.842,26.828,45.072,45.000,0.00,0.09,-272.72,-272.78,-14,536,-933,13.7,1.5,-38.0,13.9,1.6,-37.0,5.73,2.50,-22.8,20.5
2015-12-10 01:35:00,0.0,1.96052,0.00045,408.299,0.080,0.0274,0.0012,140.000,45.000,31411.25083,1.96107,408.435,26.850,45.073,45.000,0.00,0.09,-272.72,-272.78,-14,537,-933,13.7,1.4,-38.5,13.9,1.5,-37.5,5.73,2.51,-22.6,20.5
2015-12-10 01:36:00,0.0,1.96047,0.00030,408.237,0.034,0.0256,0.0019,139.997,45.000,31412.22669,1.96097,408.363,26.867,45.072,45.000,0.00,0.09,-272.73,-272.78,-14,537,-933,13.7,1.3,-39.1,13.9,1.4,-37.9,5.73,2.52,-22.3,20.5
2015-12-10 01:37:00,0.0,1.96077,0.00039,408.264,0.042,0.0247,0.0018,139.999,45.000,31413.25845,1.96122,408.384,26.876,45.072,45.000,0.00,0.09,-272.72,-272.77,-14,537,-933,13.8,1.3,-39.3,13.9,1.4,-38.2,5.73,2.53,-22.1,20.5
2015-12-10 01:38:00,0.0,1.96135,0.00039,408.335,0.036,0.0247,0.0019,139.999,45.000,31412.78776,1.96181,408.455,26.875,45.072,45.000,0.00,0.09,-272.73,-272.78,-14,537,-933,13.8,1.2,-39.6,13.9,1.4,-38.5,5.73,2.52,-21.8,20.5
2015-12-10 01:39:00,0.0,1.96148,0.00041,408.337,0.036,0.0235,0.0013,139.996,45.000,31413.85265,1.96195,408.453,26.890,45.072,44.999,0.00,0.09,-272.73,-272.79,-14,537,-933,13.8,1.2,-40.0,13.9,1.3,-38.9,5.73,2.52,-21.6,20.5
2015-12-10 01:40:00,0.0,1.96118,0.00043,408.296,0.028,0.0228,0.0025,139.997,45.000,31415.65035,1.96161,408.408,26.958,45.072,45.000,0.00,0.09,-272.73,-272.78,-14,537,-933,13.8,1.1,-40.3,13.9,1.3,-39.2,5.73,2.51,-21.4,20.5
2015-12-10 01:41:00,0.0,1.96146,0.00059,408.305,0.046,0.0229,0.0019,140.001,45.000,31412.45659,1.96185,408.416,27.009,45.072,44.999,0.00,0.09,-272.73,-272.78,-14,537,-933,13.9,1.1,-40.4,14.0,1.2,-39.4,5.73,2.48,-21.3,20.5
2015-12-10 01:42:00,0.0,1.96220,0.00038,408.396,0.036,0.0230,0.0016,139.998,45.000,31408.80691,1.96264,408.508,27.047,45.071,44.999,0.00,0.09,-272.73,-272.78,-14,537,-933,13.9,1.1,-40.6,14.0,1.2,-39.4,5.73,2.47,-21.1,20.5
2015-12-10 01:43:00,0.0,1.96346,0.00073,408.375,0.035,0.0224,0.0021,139.995,45.000,31404.68470,1.96383,408.487,27.050,45.071,44.998,0.00,0.09,-272.73,-272.78,-14,537,-933,13.9,1.1,-40.6,14.0,1.2,-39.4,5.73,2.46,-20.9,20.5
2015-12-10 01:44:00,0.0,1.96450,0.00054,408.471,0.127,0.0235,0.0013,139.998,45.000,31408.32004,1.96496,408.585,27.048,45.071,44.999,0.00,0.09,-272.73,-272.77,-15,537,-933,13.9,1.1,-40.3,14.0,1.3,-39.3,5.73,2.46,-20.7,20.5